TimeCST,TemperatureF,Dew PointF,Humidity,Sea Level PressureIn,VisibilityMPH,Wind Direction,Wind SpeedMPH,Gust SpeedMPH,PrecipitationIn,Events,Conditions,WindDirDegrees,DateUTC
12:53 AM,35.1,33.1,92,30.17,8.0,Calm,Calm,-,N/A,,Clear,0,2013-03-04 06:53:00
1:53 AM,35.1,33.1,92,30.16,7.0,Calm,Calm,-,N/A,,Clear,0,2013-03-04 07:53:00
3:53 AM,34.0,34.0,100,30.17,7.0,NW,3.5,-,N/A,,Clear,320,2013-03-04 09:53:00
4:53 AM,34.0,33.1,96,30.16,8.0,Calm,Calm,-,N/A,,Clear,0,2013-03-04 10:53:00
6:53 AM,36.0,36.0,100,30.18,10.0,Calm,Calm,-,N/A,,Partly Cloudy,0,2013-03-04 12:53:00
7:53 AM,48.9,43.0,80,30.19,9.0,Calm,Calm,-,N/A,,Clear,0,2013-03-04 13:53:00
8:53 AM,52.0,42.1,69,30.20,10.0,SE,6.9,-,N/A,,Clear,130,2013-03-04 14:53:00
9:53 AM,55.9,43.0,62,30.19,10.0,SE,11.5,-,N/A,,Clear,140,2013-03-04 15:53:00
10:53 AM,59.0,45.0,60,30.19,10.0,SSE,12.7,-,N/A,,Clear,150,2013-03-04 16:53:00
11:53 AM,59.0,44.1,58,30.18,10.0,SSE,11.5,18.4,N/A,,Clear,160,2013-03-04 17:53:00
12:53 PM,60.1,45.0,57,30.14,10.0,SSE,11.5,18.4,N/A,,Clear,160,2013-03-04 18:53:00
1:53 PM,61.0,48.0,62,30.11,10.0,SSE,12.7,19.6,N/A,,Overcast,150,2013-03-04 19:53:00
2:53 PM,60.1,48.9,67,30.09,10.0,SSE,13.8,20.7,N/A,,Scattered Clouds,150,2013-03-04 20:53:00
3:53 PM,59.0,50.0,72,30.08,10.0,SSE,11.5,18.4,N/A,,Scattered Clouds,150,2013-03-04 21:53:00
4:53 PM,57.9,51.1,78,30.06,10.0,SSE,13.8,20.7,N/A,,Mostly Cloudy,150,2013-03-04 22:53:00
5:53 PM,57.0,52.0,83,30.08,10.0,SSE,8.1,-,N/A,,Overcast,160,2013-03-04 23:53:00
6:53 PM,57.0,52.0,83,30.06,10.0,SSE,11.5,-,N/A,,Scattered Clouds,160,2013-03-05 00:53:00
7:53 PM,55.9,53.1,90,30.04,10.0,SSE,9.2,-,N/A,,Mostly Cloudy,150,2013-03-05 01:53:00
8:53 PM,55.9,54.0,93,30.04,10.0,SSE,9.2,-,N/A,,Partly Cloudy,150,2013-03-05 02:53:00
9:53 PM,57.0,54.0,89,30.04,10.0,SSE,8.1,-,N/A,,Clear,160,2013-03-05 03:53:00
10:53 PM,57.0,54.0,89,30.02,10.0,South,4.6,-,N/A,,Clear,170,2013-03-05 04:53:00
11:53 PM,57.0,54.0,89,30.00,10.0,South,6.9,-,N/A,,Clear,170,2013-03-05 05:53:00